Regional Weather Roundup
Issued by NWS

Home | Current Version | Previous Version | Graphics & Text | Print | Product List | Glossary On
Versions: 1 2 3 4 5 6 7 8 9 10 11 12 13 14 15 16 17 18 19 20 21 22 23 24 25 26 27 28 29 30 31 32 33 34 35 36 37 38 39 40 41 42 43 44 45 46 47 48 49 50
000
ASUS43 KDMX 280908
RWRIA

WEATHER ROUNDUP FOR IOWA
NATIONAL WEATHER SERVICE DES MOINES IA
400 AM CDT SUN AUG 28 2016

NOTE: "FAIR" INDICATES FEW OR NO CLOUDS BELOW 12,000 FEET WITH NO
SIGNIFICANT WEATHER AND/OR OBSTRUCTIONS TO VISIBILITY.

* - THESE STATIONS ARE NOT NWS STATIONS...THUS NOT UNDER NWS
QUALITY CONTROL.  THEY ALSO DO NOT REPORT WEATHER SUCH
AS PRECIPITATION OR FOG.

IAZ001>003-012>014-020>022-031>034-043>046-281000-
   NORTHWEST IOWA

CITY           SKY/WX    TMP DP  RH WIND       PRES   REMARKS
CARROLL *      FOG       59  59 100 CALM      30.08F VSB<1/4
CHEROKEE *     CLEAR     61  61 100 S3        30.07F FOG
DENISON *      CLEAR     64  64 100 SE5       30.06F FOG
LE MARS *      CLEAR     64  63  94 S3        30.05F
ORANGE CITY *  CLEAR     64  63  94 SE6       30.05F
SHELDON *      CLEAR     63  63 100 SE3       30.05S
SIOUX CITY     CLEAR     63  61  93 SE8       30.04F
SPENCER        CLEAR     62  60  93 SE5       30.08S FOG
STORM LAKE *   CLEAR     63  63 100 SE8       30.09S FOG
$$

IAZ055>058-069>071-079>083-090>094-281000-
   SOUTHWEST IOWA

CITY           SKY/WX    TMP DP  RH WIND       PRES   REMARKS
ATLANTIC *     PTCLDY    61  61 100 CALM      30.08S
AUDUBON *      PTCLDY    57  55  94 CALM      30.10S FOG
CLARINDA *       N/A     64  64 100 MISG      30.09F
COUNCIL BLFS * CLOUDY    68  66  94 SE5       30.07S
CRESTON *      CLOUDY    66  66 100 E6        30.11S
HARLAN  *      FOG       61  61 100 CALM      30.11F VSB<1/4
LAMONI         MOCLDY    70  69  97 E6        30.10S
RED OAK *      MOCLDY    66  64  94 CALM      30.07F
SHENANDOAH *   CLOUDY    68 -38   1 CALM      30.07S
$$

IAZ047>049-059>061-072>074-084-281000-
   CENTRAL IOWA

CITY           SKY/WX    TMP DP  RH WIND       PRES   REMARKS
AMES           FOG       61  61 100 CALM      30.09F VSB 1/4
ANKENY *         N/A    N/A N/A N/A MISG        N/A
BOONE *        CLOUDY    64  64 100 SE3       30.09F FOG
CHARITON *       N/A     68  68 100 MISG      30.11R
DES MOINES     CLOUDY    69  68  96 E5        30.09S
GRINNELL*      CLEAR     65  64  96 E6        30.11F FOG
KNOXVILLE *    PTCLDY    70  68  94 SE6       30.09S
MARSHALLTOWN   CLEAR     62  62 100 E6        30.10F FOG
NEWTON *       CLEAR     64  64 100 E5        30.10S FOG
PELLA *        PTCLDY    68  67  97 SE5       30.11S
PERRY *        FOG       62  62 100 CALM      30.09S VSB 1/4
$$

IAZ004>006-015-016-023>025-035-036-281000-
   NORTH CENTRAL IOWA

CITY           SKY/WX    TMP DP  RH WIND       PRES   REMARKS
ALGONA *       PTCLDY    66  64  94 SE8       30.10S
ESTHERVILLE    FOG       56  56 100 SE6       30.09S VSB 1/4
FORT DODGE *   MOCLDY    66  64  94 SE6       30.10F
MASON CITY     FOG       57  57 100 CALM      30.13S VSB 1/4
FOREST CITY *    N/A    N/A N/A N/A MISG        N/A
WEBSTER CITY * CLEAR     63  63 100 SE6       30.08F FOG
IOWA FALLS *     N/A     64  63  96 SE5       30.12S FOG
$$

IAZ007>011-017>019-026>030-037>042-050>054-066-281000-
   NORTHEAST IOWA

CITY           SKY/WX    TMP DP  RH WIND       PRES   REMARKS
CEDAR RAPIDS   CLEAR     66  66 100 CALM      30.10F
CHARLES CITY * FOG       61  61 100 SE3       30.13S VSB 1/4
CLINTON *      PTCLDY    66  65  96 NE3       30.12S
DECORAH *      FOG       61  61 100 CALM      30.12S VSB 1/2
DUBUQUE        MOCLDY    63  62  97 CALM      30.14R
MONTICELLO *   FOG       63  61  94 CALM      30.12S VSB 1/2
OELWEIN *      CLEAR     61  61 100 E5        30.13S FOG
WATERLOO       CLEAR     62  61  96 E3        30.10S FOG
$$

IAZ064-065-067-068-078-281000-
   EAST CENTRAL IOWA

CITY           SKY/WX    TMP DP  RH WIND       PRES   REMARKS
DAVENPORT      CLEAR     67  65  93 NE5       30.12S FOG
IOWA CITY      CLEAR     67  66  97 CALM      30.11F
MT. PLEASANT * CLEAR     69  69 100 CALM      30.10S FOG
MUSCATINE *    CLEAR     68  66  94 CALM      30.11S
QUAD CITIES    PTCLDY    69  68  96 E5        30.11R
$$

IAZ062-063-075>077-085>089-095>099-281000-
   SOUTHEAST IOWA

CITY           SKY/WX    TMP DP  RH WIND       PRES   REMARKS
BURLINGTON     CLEAR     70  70 100 CALM      30.10S FOG
FAIRFIELD *    PTCLDY    68  68 100 CALM      30.10S
FORT MADISON * CLEAR     70  70 100 CALM      30.11S FOG
KEOKUK *       CLEAR     70  70 100 SE3       30.09F
OSKALOOSA *      N/A     66  65  96 NE3       30.11R
CENTERVILLE *    N/A     70  68  94 CALM      30.11S
OTTUMWA        PTCLDY    68  66  93 SE3       30.10S
WASHINGTON *   CLEAR     68  68 100 NE3       30.11F
$$

ABBREVIATIONS USED IN REMARKS
   TC - TEMPERATURES IN CELSIUS
  WCI - WIND CHILL INDEX
   HX - HEAT INDEX
  VSB - VISIBILITY
$$





USA.gov is the U.S. government's official web portal to all federal, state and local government web resources and services.